Time,TemperatureF,DewpointF,PressureIn,WindDirection,WindDirectionDegrees,WindSpeedMPH,WindSpeedGustMPH,Humidity,HourlyPrecipIn,Conditions,Clouds,dailyrainin,SoftwareType,DateUTC
2013-05-07 00:00:00,59.3,52.0,29.95,NW,312,0.0,-999.0,77,-99.99,,,0.00,weatherlink.com 1.10,2013-05-07 05:00:00,
2013-05-07 00:15:00,58.9,52.0,29.95,NW,312,0.0,-999.0,78,-99.99,,,0.00,weatherlink.com 1.10,2013-05-07 05:15:00,
2013-05-07 00:30:00,58.4,52.0,29.95,NW,312,0.0,-999.0,79,-99.99,,,0.00,weatherlink.com 1.10,2013-05-07 05:30:00,
2013-05-07 00:45:00,58.1,52.0,29.95,NW,312,0.0,-999.0,80,-99.99,,,0.00,weatherlink.com 1.10,2013-05-07 05:45:00,
2013-05-07 01:00:00,57.8,52.0,29.95,NW,313,1.0,-999.0,82,-99.99,,,0.00,weatherlink.com 1.10,2013-05-07 06:00:00,
2013-05-07 01:15:00,58.3,54.0,29.96,North,1,0.0,-999.0,85,-99.99,,,0.00,weatherlink.com 1.10,2013-05-07 06:15:00,
2013-05-07 01:30:00,58.4,54.0,29.95,North,1,0.0,-999.0,86,-99.99,,,0.00,weatherlink.com 1.10,2013-05-07 06:30:00,
2013-05-07 01:45:00,58.4,54.0,29.95,North,1,0.0,-999.0,86,-99.99,,,0.00,weatherlink.com 1.10,2013-05-07 06:45:00,
2013-05-07 02:00:00,58.3,54.0,29.95,North,1,0.0,-999.0,86,-99.99,,,0.00,weatherlink.com 1.10,2013-05-07 07:00:00,
2013-05-07 02:15:00,58.1,54.0,29.95,North,1,0.0,-999.0,86,-99.99,,,0.00,weatherlink.com 1.10,2013-05-07 07:15:00,
2013-05-07 02:30:00,57.6,54.0,29.94,North,1,0.0,-999.0,86,-99.99,,,0.00,weatherlink.com 1.10,2013-05-07 07:30:00,
2013-05-07 02:45:00,57.5,53.0,29.94,North,1,0.0,-999.0,86,-99.99,,,0.00,weatherlink.com 1.10,2013-05-07 07:45:00,
2013-05-07 03:00:00,57.3,53.0,29.95,North,1,0.0,-999.0,86,-99.99,,,0.00,weatherlink.com 1.10,2013-05-07 08:00:00,
2013-05-07 03:15:00,57.2,53.0,29.95,North,1,0.0,-999.0,87,-99.99,,,0.00,weatherlink.com 1.10,2013-05-07 08:15:00,
2013-05-07 03:30:00,56.9,53.0,29.95,North,1,0.0,-999.0,87,-99.99,,,0.00,weatherlink.com 1.10,2013-05-07 08:30:00,
2013-05-07 03:45:00,56.7,53.0,29.95,North,1,0.0,-999.0,87,-99.99,,,0.00,weatherlink.com 1.10,2013-05-07 08:45:00,
2013-05-07 04:00:00,56.5,53.0,29.96,North,1,0.0,-999.0,87,-99.99,,,0.00,weatherlink.com 1.10,2013-05-07 09:00:00,
2013-05-07 04:15:00,56.2,53.0,29.96,North,1,0.0,-999.0,88,-99.99,,,0.00,weatherlink.com 1.10,2013-05-07 09:15:00,
2013-05-07 04:30:00,55.7,52.0,29.97,North,1,0.0,-999.0,88,-99.99,,,0.00,weatherlink.com 1.10,2013-05-07 09:30:00,
2013-05-07 04:45:00,55.4,52.0,29.97,North,1,0.0,-999.0,88,-99.99,,,0.00,weatherlink.com 1.10,2013-05-07 09:45:00,
2013-05-07 05:00:00,55.1,52.0,29.98,North,1,0.0,-999.0,88,-99.99,,,0.00,weatherlink.com 1.10,2013-05-07 10:00:00,
2013-05-07 05:15:00,55.1,52.0,29.98,North,1,0.0,-999.0,89,-99.99,,,0.00,weatherlink.com 1.10,2013-05-07 10:15:00,
2013-05-07 05:30:00,55.1,52.0,29.98,North,1,0.0,-999.0,89,-99.99,,,0.00,weatherlink.com 1.10,2013-05-07 10:30:00,
2013-05-07 05:45:00,55.7,53.0,29.96,North,1,0.0,-999.0,90,-99.99,,,0.00,weatherlink.com 1.10,2013-05-07 10:45:00,
2013-05-07 06:00:00,56.0,54.0,29.97,North,1,0.0,-999.0,91,-99.99,,,0.00,weatherlink.com 1.10,2013-05-07 11:00:00,
2013-05-07 06:15:00,56.3,54.0,29.98,North,1,0.0,-999.0,91,-99.99,,,0.00,weatherlink.com 1.10,2013-05-07 11:15:00,
2013-05-07 06:30:00,56.5,54.0,29.98,North,1,0.0,-999.0,91,-99.99,,,0.00,weatherlink.com 1.10,2013-05-07 11:30:00,
2013-05-07 06:45:00,56.3,54.0,29.99,North,1,0.0,-999.0,91,-99.99,,,0.00,weatherlink.com 1.10,2013-05-07 11:45:00,
2013-05-07 07:00:00,56.3,54.0,30.00,North,1,0.0,-999.0,92,-99.99,,,0.00,weatherlink.com 1.10,2013-05-07 12:00:00,
2013-05-07 07:15:00,56.2,54.0,30.00,North,1,0.0,-999.0,92,-99.99,,,0.00,weatherlink.com 1.10,2013-05-07 12:15:00,
2013-05-07 07:30:00,56.2,54.0,30.01,North,1,0.0,-999.0,92,-99.99,,,0.00,weatherlink.com 1.10,2013-05-07 12:30:00,
2013-05-07 07:45:00,56.7,55.0,30.01,North,1,0.0,-999.0,92,-99.99,,,0.00,weatherlink.com 1.10,2013-05-07 12:45:00,
2013-05-07 08:00:00,58.3,56.0,30.01,North,1,0.0,-999.0,92,-99.99,,,0.00,weatherlink.com 1.10,2013-05-07 13:00:00,
2013-05-07 08:15:00,60.1,58.0,30.02,North,1,0.0,-999.0,92,-99.99,,,0.00,weatherlink.com 1.10,2013-05-07 13:15:00,
2013-05-07 08:30:00,61.8,59.0,30.02,North,1,0.0,-999.0,91,-99.99,,,0.00,weatherlink.com 1.10,2013-05-07 13:30:00,
2013-05-07 08:45:00,63.9,60.0,30.02,North,1,0.0,-999.0,87,-99.99,,,0.00,weatherlink.com 1.10,2013-05-07 13:45:00,
2013-05-07 09:00:00,65.8,60.0,30.02,North,1,0.0,-999.0,82,-99.99,,,0.00,weatherlink.com 1.10,2013-05-07 14:00:00,
2013-05-07 09:15:00,68.3,61.0,30.02,North,1,0.0,-999.0,77,-99.99,,,0.00,weatherlink.com 1.10,2013-05-07 14:15:00,
2013-05-07 09:30:00,71.3,60.0,30.02,North,1,0.0,-999.0,67,-99.99,,,0.00,weatherlink.com 1.10,2013-05-07 14:30:00,
2013-05-07 09:45:00,72.8,57.0,30.02,North,1,0.0,-999.0,59,-99.99,,,0.00,weatherlink.com 1.10,2013-05-07 14:45:00,
2013-05-07 10:00:00,73.9,57.0,30.02,North,1,0.0,-999.0,55,-99.99,,,0.00,weatherlink.com 1.10,2013-05-07 15:00:00,
2013-05-07 10:16:00,73.7,57.0,30.02,North,1,0.0,-999.0,56,-99.99,,,0.00,weatherlink.com 1.10,2013-05-07 15:16:00,
2013-05-07 10:31:00,75.3,56.0,30.02,NNW,344,1.0,-999.0,52,-99.99,,,0.00,weatherlink.com 1.10,2013-05-07 15:31:00,
2013-05-07 10:46:00,76.3,57.0,30.01,North,357,6.0,-999.0,52,-99.99,,,0.00,weatherlink.com 1.10,2013-05-07 15:46:00,
2013-05-07 11:01:00,75.3,54.0,30.01,NNW,329,1.0,-999.0,48,-99.99,,,0.00,weatherlink.com 1.10,2013-05-07 16:01:00,
2013-05-07 11:16:00,76.0,54.0,30.02,NNW,337,0.0,-999.0,47,-99.99,,,0.00,weatherlink.com 1.10,2013-05-07 16:16:00,
2013-05-07 11:31:00,76.1,57.0,30.02,NNE,14,3.0,-999.0,52,-99.99,,,0.00,weatherlink.com 1.10,2013-05-07 16:31:00,
2013-05-07 11:46:00,77.6,58.0,30.01,East,97,1.0,-999.0,52,-99.99,,,0.00,weatherlink.com 1.10,2013-05-07 16:46:00,
2013-05-07 12:01:00,76.7,55.0,30.01,West,260,3.0,-999.0,48,-99.99,,,0.00,weatherlink.com 1.10,2013-05-07 17:01:00,
2013-05-07 12:16:00,78.1,57.0,30.00,NNW,347,0.0,-999.0,49,-99.99,,,0.00,weatherlink.com 1.10,2013-05-07 17:16:00,
2013-05-07 12:31:00,77.2,55.0,30.00,North,349,2.0,-999.0,47,-99.99,,,0.00,weatherlink.com 1.10,2013-05-07 17:31:00,
2013-05-07 12:46:00,77.4,56.0,29.99,NE,55,3.0,-999.0,47,-99.99,,,0.00,weatherlink.com 1.10,2013-05-07 17:46:00,
2013-05-07 13:01:00,79.0,56.0,29.99,North,6,1.0,-999.0,45,-99.99,,,0.00,weatherlink.com 1.10,2013-05-07 18:01:00,
2013-05-07 13:16:00,79.6,57.0,29.98,NW,309,0.0,-999.0,46,-99.99,,,0.00,weatherlink.com 1.10,2013-05-07 18:16:00,
2013-05-07 13:31:00,79.8,56.0,29.98,NNW,347,0.0,-999.0,44,-99.99,,,0.00,weatherlink.com 1.10,2013-05-07 18:31:00,
2013-05-07 13:46:00,79.0,55.0,29.98,NNW,340,0.0,-999.0,43,-99.99,,,0.00,weatherlink.com 1.10,2013-05-07 18:46:00,
2013-05-07 14:01:00,80.5,55.0,29.97,West,270,2.0,-999.0,42,-99.99,,,0.00,weatherlink.com 1.10,2013-05-07 19:01:00,
2013-05-07 14:16:00,80.9,56.0,29.97,WNW,296,1.0,-999.0,42,-99.99,,,0.00,weatherlink.com 1.10,2013-05-07 19:16:00,
2013-05-07 14:31:00,80.7,55.0,29.96,North,6,7.0,-999.0,41,-99.99,,,0.00,weatherlink.com 1.10,2013-05-07 19:31:00,
2013-05-07 14:46:00,80.1,54.0,29.95,NNW,330,0.0,-999.0,40,-99.99,,,0.00,weatherlink.com 1.10,2013-05-07 19:46:00,
2013-05-07 15:01:00,81.2,54.0,29.95,North,11,2.0,-999.0,39,-99.99,,,0.00,weatherlink.com 1.10,2013-05-07 20:01:00,
2013-05-07 15:16:00,81.6,54.0,29.95,West,277,3.0,-999.0,39,-99.99,,,0.00,weatherlink.com 1.10,2013-05-07 20:16:00,
2013-05-07 15:31:00,80.9,53.0,29.94,NNW,343,0.0,-999.0,38,-99.99,,,0.00,weatherlink.com 1.10,2013-05-07 20:31:00,
2013-05-07 15:46:00,81.8,55.0,29.93,North,352,0.0,-999.0,40,-99.99,,,0.00,weatherlink.com 1.10,2013-05-07 20:46:00,
2013-05-07 16:01:00,82.0,54.0,29.93,NNE,13,3.0,-999.0,38,-99.99,,,0.00,weatherlink.com 1.10,2013-05-07 21:01:00,
2013-05-07 16:16:00,82.6,57.0,29.93,North,349,4.0,-999.0,41,-99.99,,,0.00,weatherlink.com 1.10,2013-05-07 21:16:00,
2013-05-07 16:31:00,81.2,52.0,29.92,North,357,0.0,-999.0,36,-99.99,,,0.00,weatherlink.com 1.10,2013-05-07 21:31:00,
2013-05-07 16:46:00,82.0,52.0,29.92,WNW,295,2.0,-999.0,35,-99.99,,,0.00,weatherlink.com 1.10,2013-05-07 21:46:00,
2013-05-07 17:01:00,82.4,54.0,29.92,NNW,333,2.0,-999.0,38,-99.99,,,0.00,weatherlink.com 1.10,2013-05-07 22:01:00,
2013-05-07 17:16:00,82.2,53.0,29.92,NNW,346,0.0,-999.0,36,-99.99,,,0.00,weatherlink.com 1.10,2013-05-07 22:16:00,
2013-05-07 17:31:00,81.8,50.0,29.92,North,8,2.0,-999.0,33,-99.99,,,0.00,weatherlink.com 1.10,2013-05-07 22:31:00,
2013-05-07 17:46:00,82.0,51.0,29.92,North,359,1.0,-999.0,34,-99.99,,,0.00,weatherlink.com 1.10,2013-05-07 22:46:00,
2013-05-07 18:01:00,81.6,53.0,29.92,NNW,347,0.0,-999.0,37,-99.99,,,0.00,weatherlink.com 1.10,2013-05-07 23:01:00,
2013-05-07 18:16:00,80.9,50.0,29.92,North,0,0.0,-999.0,34,-99.99,,,0.00,weatherlink.com 1.10,2013-05-07 23:16:00,
2013-05-07 18:31:00,80.7,51.0,29.92,North,0,0.0,-999.0,36,-99.99,,,0.00,weatherlink.com 1.10,2013-05-07 23:31:00,
2013-05-07 18:46:00,79.4,51.0,29.92,West,267,2.0,-999.0,37,-99.99,,,0.00,weatherlink.com 1.10,2013-05-07 23:46:00,
2013-05-07 19:01:00,79.0,52.0,29.92,North,357,0.0,-999.0,39,-99.99,,,0.00,weatherlink.com 1.10,2013-05-08 00:01:00,
2013-05-07 19:16:00,78.8,52.0,29.92,North,359,0.0,-999.0,39,-99.99,,,0.00,weatherlink.com 1.10,2013-05-08 00:16:00,
2013-05-07 19:31:00,78.1,51.0,29.93,North,359,0.0,-999.0,39,-99.99,,,0.00,weatherlink.com 1.10,2013-05-08 00:31:00,
2013-05-07 19:46:00,77.0,51.0,29.93,North,359,0.0,-999.0,41,-99.99,,,0.00,weatherlink.com 1.10,2013-05-08 00:46:00,
2013-05-07 20:01:00,75.4,52.0,29.93,North,359,0.0,-999.0,44,-99.99,,,0.00,weatherlink.com 1.10,2013-05-08 01:01:00,
2013-05-07 20:16:00,74.0,52.0,29.94,North,359,0.0,-999.0,47,-99.99,,,0.00,weatherlink.com 1.10,2013-05-08 01:16:00,
2013-05-07 20:31:00,72.5,53.0,29.94,North,359,0.0,-999.0,50,-99.99,,,0.00,weatherlink.com 1.10,2013-05-08 01:31:00,
2013-05-07 20:46:00,71.5,53.0,29.95,North,357,0.0,-999.0,53,-99.99,,,0.00,weatherlink.com 1.10,2013-05-08 01:46:00,
2013-05-07 21:01:00,70.4,53.0,29.96,North,359,0.0,-999.0,55,-99.99,,,0.00,weatherlink.com 1.10,2013-05-08 02:01:00,
2013-05-07 21:16:00,69.4,54.0,29.96,North,357,0.0,-999.0,58,-99.99,,,0.00,weatherlink.com 1.10,2013-05-08 02:16:00,
2013-05-07 21:31:00,68.4,54.0,29.96,North,359,0.0,-999.0,60,-99.99,,,0.00,weatherlink.com 1.10,2013-05-08 02:31:00,
2013-05-07 21:46:00,67.6,55.0,29.97,North,359,0.0,-999.0,65,-99.99,,,0.00,weatherlink.com 1.10,2013-05-08 02:46:00,
2013-05-07 22:01:00,66.9,55.0,29.98,North,357,0.0,-999.0,65,-99.99,,,0.00,weatherlink.com 1.10,2013-05-08 03:01:00,
2013-05-07 22:17:00,66.3,55.0,29.98,North,357,0.0,-999.0,67,-99.99,,,0.00,weatherlink.com 1.10,2013-05-08 03:17:00,
2013-05-07 22:31:00,65.6,55.0,29.98,North,357,0.0,-999.0,68,-99.99,,,0.00,weatherlink.com 1.10,2013-05-08 03:31:00,
2013-05-07 22:46:00,65.0,55.0,29.98,North,357,0.0,-999.0,70,-99.99,,,0.00,weatherlink.com 1.10,2013-05-08 03:46:00,
2013-05-07 23:01:00,64.2,55.0,29.98,North,357,0.0,-999.0,71,-99.99,,,0.00,weatherlink.com 1.10,2013-05-08 04:01:00,
2013-05-07 23:16:00,63.7,55.0,29.98,North,357,0.0,-999.0,73,-99.99,,,0.00,weatherlink.com 1.10,2013-05-08 04:16:00,
2013-05-07 23:31:00,63.2,55.0,29.98,North,357,0.0,-999.0,74,-99.99,,,0.00,weatherlink.com 1.10,2013-05-08 04:31:00,
2013-05-07 23:46:00,63.2,56.0,29.99,South,174,0.0,-999.0,78,-99.99,,,0.00,weatherlink.com 1.10,2013-05-08 04:46:00,